User: anonymous   Login
Location: Unspecified
(0.0000°N, 0.0000°E)
Time: 14:38:39
(UTC+00:00)
Language:

SMAP - Orbit

View from above orbital plane
View from above orbital plane
View from above satellite
View from above satellite

Ground track
Ground track

The orbit data is extracted from the following two-line orbital elements,

1 40376U 15003A   21296.72027718  .00000072  00000-0  22933-4 0  9995
2 40376  98.1259 302.0135 0001013 108.6449 251.4864 14.63368060359360
Epoch (UTC): 23 October 2021 17:17:11
Eccentricity: 0.0001013
inclination: 98.1259°
perigee height: 681 km
apogee height: 683 km
right ascension of ascending node: 302.0135°
argument of perigee: 108.6449°
revolutions per day: 14.63368060
mean anomaly at epoch: 251.4864°
orbit number at epoch: 35936

The dashed part of the orbit path shows where the satellite is in the earth's shadow,  

DLR